Location: Azenweiler
(47.8027°N, 9.4096°E)
Time: 03:15:33
(UTC+00:00)

Cosmos 1626 Rocket - Pass Details

Date: 18 March 2026
Orbit: 596 x 624 km, 82.5° (Epoch: 13 April)

Event Time Altitude Azimuth Distance (km) Brightness Sun altitude
Rises 03:51:12 0° 349° (NNW) 2,895 7.1 -17.1°
Reaches altitude 10° 03:53:27 10° 347° (NNW) 1,981 6.2 -16.8°
Maximum altitude 03:57:49 75° 263° (W) 634 3.4 -16.1°
Drops below altitude 10° 04:02:07 10° 178° (S) 1,946 6.0 -15.4°
Sets 04:04:18 0° 177° (S) 2,840 6.8 -15.0°
